Regional Weather Roundup
Issued by NWS Sioux Falls, SD

Home | Current Version | Previous Version | Text Only | Print | Product List | Glossary Off
Versions: 1 2 3 4 5 6 7 8 9 10 11 12 13 14 15 16 17 18 19 20 21 22 23 24 25 26 27 28 29 30 31 32 33 34 35 36 37 38 39 40 41 42 43 44 45 46 47 48 49 50

000
ASUS43 KFSD 291910
RWRFSD

WEATHER ROUNDUP FOR SE SOUTH DAKOTA/SW MINNESOTA/NW IOWA
NATIONAL WEATHER SERVICE SIOUX FALLS SD
100 PM CST THU JAN 29 2015

NOTE: "FAIR" INDICATES FEW OR NO CLOUDS BELOW 12,000 FEET WITH NO
SIGNIFICANT WEATHER AND OR OBSTRUCTIONS TO VISIBILITY.


SDZ038>040-050-052>070-292000-
SOUTHEAST SOUTH DAKOTA

CITY           SKY/WX    TMP DP  RH WIND       PRES   REMARKS
CHAMBERLAIN    SUNNY     34  23  63 NW16G25   30.47F WCI  24
HURON          CLOUDY    31  21  66 NW16G25   30.47S WCI  20
MADISON        CLOUDY    28  27  93 NW23G30   30.41S WCI  14
MITCHELL       CLOUDY    32  22  66 N22G29    30.48S WCI  19
SIOUX FALLS    CLOUDY    31  24  75 N21       30.41S WCI  18
WINNER         FAIR      41  23  48 NW17      30.47S
YANKTON        CLOUDY    36  25  64 NW16      30.45F
$$

MNZ071-072-080-081-089-090-097-098-292000-
SOUTHWEST MINNESOTA

CITY           SKY/WX    TMP DP  RH WIND       PRES   REMARKS
FAIRMONT       CLOUDY    30  21  69 NW28G38   30.30R WCI  16
JACKSON        CLOUDY    30  23  74 NW26G38   30.34R WCI  16
LUVERNE        CLOUDY    32  23  69 N21       30.39S WCI  20
MARSHALL       CLOUDY    27  18  69 N22G29    30.40F WCI  12
MONTEVIDEO     CLOUDY    25  19  80 N26G32    30.41S WCI   9
PIPESTONE      CLOUDY    28  21  74 NW18G31   30.37S WCI  16
REDWOOD FALLS  CLOUDY    26  18  71 NW18G32   30.37S WCI  13
TRACY          CLOUDY    27  22  82 NW20G29   30.38S WCI  14
WINDOM         CLOUDY    27  21  80 NW28G36   30.35R WCI  11
WORTHINGTON    CLOUDY    28  19  69 N22G29    30.37R WCI  15
$$

IAZ001>003-012>014-020>022-031-032-NEZ013-014-SDZ071-292000-
NORTHWEST IOWA

CITY           SKY/WX    TMP DP  RH WIND       PRES   REMARKS
CHEROKEE       CLOUDY    32  26  77 N15G23    30.38S WCI  22
DENISON        CLOUDY    34  27  75 N24G35    30.36R WCI  21
ESTHERVILLE    CLOUDY    29  22  75 NW33G40   30.34R WCI  13
LE MARS        CLOUDY    34  27  75 N16G22    30.42R WCI  23
ORANGE CITY    CLOUDY    34  25  69 NW21G26   30.39R WCI  22
SHELDON        CLOUDY    32  27  80 N18       30.37S WCI  20
SIOUX CITY     CLOUDY    36  25  64 NW22G35   30.41F
SPENCER        CLOUDY    31  21  66 N26G37    30.36R WCI  17
STORM LAKE     CLOUDY    30  25  80 N29       30.36R WCI  15
$$

ABBREVIATIONS USED IN REMARKS
   TC - TEMPERATURE IN CELSIUS
  WCI - WIND CHILL INDEX
   HX - HEAT INDEX
  VSB - VISIBILITY




USA.gov is the U.S. government's official web portal to all federal, state and local government web resources and services.